TimeEST,TemperatureF,Dew PointF,Humidity,Sea Level PressureIn,VisibilityMPH,Wind Direction,Wind SpeedMPH,Gust SpeedMPH,PrecipitationIn,Events,Conditions,WindDirDegrees,DateUTC
12:54 AM,44.6,42.8,93,29.96,7.0,East,4.6,-,N/A,,Scattered Clouds,100,2013-01-30 05:54:00
1:54 AM,44.1,43.0,96,29.94,6.0,East,3.5,-,N/A,,Mostly Cloudy,90,2013-01-30 06:54:00
2:54 AM,42.1,42.1,100,29.91,5.0,East,3.5,-,N/A,,Mostly Cloudy,80,2013-01-30 07:54:00
3:54 AM,42.1,41.0,96,29.89,5.0,Calm,Calm,-,N/A,,Overcast,0,2013-01-30 08:54:00
4:54 AM,41.0,41.0,100,29.87,5.0,Calm,Calm,-,N/A,,Mostly Cloudy,0,2013-01-30 09:54:00
5:54 AM,41.0,39.9,96,29.85,4.0,Calm,Calm,-,N/A,,Mostly Cloudy,0,2013-01-30 10:54:00
6:54 AM,41.0,41.0,100,29.82,5.0,Calm,Calm,-,N/A,,Mostly Cloudy,0,2013-01-30 11:54:00
7:49 AM,42.8,42.8,100,29.83,4.0,Calm,Calm,-,N/A,,Overcast,0,2013-01-30 12:49:00
7:54 AM,43.0,43.0,100,29.83,4.0,Calm,Calm,-,N/A,,Overcast,0,2013-01-30 12:54:00
8:54 AM,51.1,50.0,96,29.79,6.0,SE,4.6,-,N/A,,Overcast,140,2013-01-30 13:54:00
9:54 AM,64.0,57.9,80,29.77,10.0,SSW,12.7,25.3,N/A,,Overcast,200,2013-01-30 14:54:00
10:54 AM,66.9,57.9,73,29.73,10.0,SSW,16.1,28.8,0.01,,Overcast,200,2013-01-30 15:54:00
11:07 AM,68.0,57.2,68,29.73,10.0,SSW,11.5,25.3,N/A,,Overcast,200,2013-01-30 16:07:00
11:54 AM,68.0,59.0,73,29.70,10.0,SSW,17.3,27.6,0.01,,Overcast,200,2013-01-30 16:54:00
12:54 PM,68.0,59.0,73,29.65,10.0,South,15.0,28.8,0.02,,Overcast,190,2013-01-30 17:54:00
1:10 PM,69.8,59.0,68,29.64,10.0,SSW,12.7,24.2,N/A,,Overcast,200,2013-01-30 18:10:00
1:54 PM,69.1,59.0,70,29.62,10.0,South,11.5,23.0,0.01,,Overcast,190,2013-01-30 18:54:00
2:54 PM,70.0,59.0,68,29.60,10.0,South,12.7,26.5,N/A,,Overcast,190,2013-01-30 19:54:00
3:54 PM,70.0,59.0,68,29.60,10.0,SSW,11.5,23.0,0.01,,Overcast,200,2013-01-30 20:54:00
4:26 PM,59.0,55.4,88,29.62,3.0,NW,9.2,21.9,0.06,Rain,Heavy Rain,310,2013-01-30 21:26:00
4:35 PM,59.0,57.2,94,29.61,6.0,Variable,6.9,-,0.10,Rain,Light Rain,0,2013-01-30 21:35:00
4:44 PM,57.2,57.2,100,29.62,2.0,NW,6.9,-,0.18,Rain,Heavy Rain,310,2013-01-30 21:44:00
4:54 PM,57.9,57.0,97,29.62,1.8,WNW,5.8,-,0.24,Rain,Light Rain,300,2013-01-30 21:54:00
4:58 PM,57.2,57.2,100,29.61,3.0,NNE,3.5,-,0.02,Rain,Rain,20,2013-01-30 21:58:00
5:14 PM,57.2,55.4,94,29.60,10.0,NE,3.5,-,0.03,Rain,Light Rain,50,2013-01-30 22:14:00
5:54 PM,57.9,55.9,93,29.58,10.0,ENE,9.2,-,0.05,,Overcast,70,2013-01-30 22:54:00
6:54 PM,57.0,55.0,93,29.52,10.0,ENE,13.8,-,0.04,,Overcast,70,2013-01-30 23:54:00
7:54 PM,59.0,55.9,90,29.47,10.0,SSE,6.9,-,N/A,,Mostly Cloudy,160,2013-01-31 00:54:00
8:20 PM,59.0,55.4,88,29.53,5.0,WNW,17.3,21.9,0.04,Rain,Light Rain,300,2013-01-31 01:20:00
8:26 PM,57.2,55.4,94,29.51,5.0,WNW,10.4,21.9,0.15,Rain,Light Rain,300,2013-01-31 01:26:00
8:52 PM,55.4,55.4,100,29.50,3.0,Calm,Calm,-,0.40,Rain,Rain,0,2013-01-31 01:52:00
8:54 PM,57.0,55.9,96,29.51,2.5,Calm,Calm,-,0.40,Rain,Rain,0,2013-01-31 01:54:00
9:13 PM,55.4,55.4,100,29.46,5.0,ENE,5.8,-,0.09,Rain,Rain,70,2013-01-31 02:13:00
9:41 PM,55.4,55.4,100,29.44,2.5,ESE,11.5,-,0.20,Rain,Light Rain,110,2013-01-31 02:41:00
9:54 PM,55.9,55.0,97,29.43,4.0,ESE,8.1,-,0.21,Rain,Light Rain,120,2013-01-31 02:54:00
10:20 PM,55.4,55.4,100,29.40,4.0,ESE,8.1,-,0.07,Rain,Rain,120,2013-01-31 03:20:00
10:54 PM,55.9,55.0,97,29.34,4.0,ESE,11.5,-,0.19,Rain,Light Rain,110,2013-01-31 03:54:00
11:02 PM,55.4,55.4,100,29.32,5.0,ESE,10.4,-,0.02,Rain,Light Rain,110,2013-01-31 04:02:00
11:27 PM,55.4,55.4,100,29.29,6.0,SE,10.4,-,0.06,Rain,Light Rain,130,2013-01-31 04:27:00
11:54 PM,55.0,54.0,96,29.24,7.0,SE,12.7,19.6,0.08,Rain,Light Rain,130,2013-01-31 04:54:00